Skip Page Navigation
NASA JPL Caltech
NASA Logo - Jet Propulsion Laboratory + View the NASA Portal
+ Center for Near-Earth Object Studies
JPL Home Earth Solar System Stars & Galaxies Technology
JPL Solar System Dynamics
BODIES ORBITS EPHEMERIDES TOOLS PHYSICAL DATA DISCOVERY FAQ SITE MAP
JPL Small-Body Database Browser
Search: [ help ]  
(2019 VT3)
Classification: Apollo [NEO]          SPK-ID: 3892702
Ephemeris | Orbit Diagram | Orbital Elements | Mission Design | Physical Parameters | Close-Approach Data ]

[ show orbit diagram ]
Orbital Elements at Epoch 2459200.5 (2020-Dec-17.0) TDB
Reference: JPL 2 (heliocentric ecliptic J2000)
 Element Value Uncertainty (1-sigma)   Units 
e .1317033945984103 0.00010827  
a 1.037217262985267 6.6069e-05 au
q .900612228514035 5.617e-05 au
i 7.814221717352615 0.0071416 deg
node 40.73350703644434 0.00064147 deg
peri 92.13657355409303 0.0051541 deg
M 305.0755168285566 0.020139 deg
tp 2459259.366268857001
(2021-Feb-13.86626886)
0.027207 TDB
period 385.8362530671656
1.06
0.036866
0.0001009
d
yr
n .9330382957490827 8.915e-05 deg/d
Q 1.173822297456498 7.4771e-05 au
  Orbit Determination Parameters
   # obs. used (total)      19  
   data-arc span      3 days  
   first obs. used      2019-11-05  
   last obs. used      2019-11-08  
   planetary ephem.      DE431  
   SB-pert. ephem.      SB431-N16  
   condition code      6  
   norm. resid. RMS      .6386  
   source      ORB  
   producer      Otto Matic  
   solution date      2019-Nov-08 05:49:44  

Additional Information
 Earth MOID = .00411164 au 
 Jupiter MOID = 3.83528 au 
 T_jup = 5.894 
[ show covariance matrix ]

Ephemeris | Orbit Diagram | Orbital Elements | Mission Design | Physical Parameters | Close-Approach Data ]

Physical Parameter Table
Parameter Symbol Value Units Sigma Reference Notes
absolute magnitude H 28.2   .32818 E2019-VC6 autocmod 2.8

[ show close-approach data ]
Ephemeris | Orbit Diagram | Orbital Elements | Mission Design | Physical Parameters | Close-Approach Data ]
ABOUT SSD CREDITS/AWARDS PRIVACY/COPYRIGHT GLOSSARY LINKS
FirstGov 2021-Apr-14 02:09 UT
(server date/time)  
NASA Home Page
Site Manager:   Ryan S. Park
Webmaster  Alan B. Chamberlin